www.pogodaiklimat.ru

Погода и климат >> Архив погоды >> Мьянма >> Минбу


ПОГОДА в Минбу

  • Прогноз погоды в Минбу
  • Монитор погоды в Минбу

АРХИВ ПОГОДЫ в Минбу

Время (UTC), дата Ветер
(напр.,м/с)
 
Видим.   Явления Облачность Т
(С)
Тd
(С)
f
(%)
Тe
(С)
Тes
(С)
Комфортность P
(гПа)
Po
(гПа)
Тmin
(С)
Tmax
(С)
R
(мм)
R24
(мм)
S
(см)
15 9.09 ЮВ 1 5000 м 6/4 300 м
[Cu Sc Ac trans]
+30.0 +26.6 82 +46 +46 опасность
перегрева
1003.1 997.3
00 10.09 ЮВ 2 5000 м 8/5 300 м
[Cu Sc Ac trans]
+26.8 +25.6 93 +39 +39 очень
душно
1004.2 998.4 +25.0
03 10.09 СЗ 1 6000 м 8/5 300 м
[Cu Sc Ac trans]
+30.0 +25.3 76 +44 +48 опасность
перегрева
1004.8 999.0
06 10.09 СВ 2 10 км 6/4 300 м
[Cu Sc Ac trans]
+32.0 +28.1 80 +53 +62 опасность
перегрева
1004.7 999.0
09 10.09 ЮВ 1 6000 м 9/6 300 м
[Cu Sc Ac As]
+27.0 +27.0 100 +42 +44 опасность
перегрева
1004.3 998.5
12 10.09 ЮЗ 1 6000 м 9/6 300 м
[Cu Sc Ac trans]
+28.0 +26.8 93 +44 +44 опасность
перегрева
1003.8 998.0 +32.8 30
15 10.09 ЮЗ 1 5000 м 9/6 300 м
[Cu Sc Ac trans]
+28.0 +26.8 93 +44 +44 опасность
перегрева
1004.3 998.5
00 11.09 ЮВ 1 5000 м в посл. час морось 10/8 300 м
[Cu Sc Ac As]
+25.5 +24.8 96 +36 +36 очень
душно
1004.7 998.9 +23.5 1
03 11.09 ЮВ 2 6000 м 10/6 300 м
[Cu Sc Ac As]
+27.0 +24.0 84 +37 +39 очень
душно
1006.9 1001.1
06 11.09 СЗ 1 9000 м 9/6 300 м
[Cu Sc Ac trans]
+29.0 +24.8 78 +41 +47 опасность
перегрева
1006.8 1001.0
09 11.09 СВ 2 9000 м 10/5 300 м
[Cu Sc Ac As]
+30.0 +25.3 76 +44 +45 опасность
перегрева
1005.0 999.2
12 11.09 СВ 1 6000 м 9/5 300 м
[Cu Sc Ac trans Ci fib]
+29.0 +25.9 83 +43 +43 опасность
перегрева
1003.8 998.0 +30.5
15 11.09 СВ 1 5000 м 9/5 300 м
[Cu Sc Ac trans Ci fib]
+28.0 +26.8 93 +44 +44 опасность
перегрева
1005.0 999.2
00 12.09 СВ 1 6000 м 8/5 300 м
[Cu Sc Ci fib]
+25.5 +23.9 91 +35 +35 очень
душно
1008.0 1002.1 +23.0 2
03 12.09 ЮВ 2 6000 м 8/5 300 м
[Cu Sc Ci fib]
+27.0 +25.6 92 +40 +45 очень
душно
1010.0 1004.2
06 12.09 ЮВ 2 10 км 8/5 300 м
[Cu Sc Ci fib]
+29.5 +25.4 79 +43 +52 опасность
перегрева
1009.1 1003.3
09 12.09 ЮВ 1 10 км 6/4 300 м
[Cb cap Ci fib]
+32.0 +26.5 73 +49 +54 опасность
перегрева
1007.1 1001.4
12 12.09 штиль 0 6000 м 5/3 300 м
[Cb cap Ci fib]
+30.0 +26.6 82 +46 +46 опасность
перегрева
1006.4 1000.6 +32.0
15 12.09 штиль 0 5000 м 5/3 300 м
[Cb cap Ci fib]
+29.0 +25.9 83 +43 +43 опасность
перегрева
1007.2 1001.4
00 13.09 СВ 1 5000 м 9/6 300 м
[Cu Sc Ac As]
+25.3 +25.0 98 +36 +36 очень
душно
1008.2 1002.3 +23.4
03 13.09 СВ 2 6000 м 8/5 300 м
[Cu Sc Ac trans Ci fib]
+27.3 +24.0 82 +38 +42 очень
душно
1009.4 1003.6
06 13.09 СВ 1 10 км 5/3 300 м
[Cu Sc Ac trans Ci fib]
+31.8 +28.1 81 +53 +67 опасность
перегрева
1008.6 1002.9
09 13.09 ЮЗ 1 10 км 5/4 300 м
[Cb calv Ac trans]
+33.0 +27.5 73 +52 +58 опасность
перегрева
1005.5 999.8
12 13.09 н/о +25.0 +23.3 90 +33 +33 очень
душно
1006.8 1000.9 +28.0 0.0
15 13.09 {морось} н/о +25.5 +24.6 95 +36 +36 очень
душно
1010.0 1004.1
00 14.09 ЮЗ 1 5000 м 9/6 300 м
[Cu Sc Ac trans]
+25.0 +25.0 100 +36 +36 очень
душно
1005.9 1000.0 +23.0
03 14.09 СВ 1 6000 м 9/6 300 м
[Cu Sc Ac trans]
+26.8 +25.6 93 +39 +42 очень
душно
1008.2 1002.4
06 14.09 СВ 1 10 км 8/5 300 м
[Cu Sc Ac trans]
+31.1 +26.7 77 +48 +55 опасность
перегрева
1007.2 1001.4
09 14.09 ЮВ 1 10 км 1/0
[Ci fib]
+33.3 +27.5 72 +53 +62 опасность
перегрева
1004.5 998.8
12 14.09 штиль 0 6000 м 5/3 300 м
[Cu Sc]
+31.1 +26.7 77 +48 +48 опасность
перегрева
1004.9 999.2 +34.4
15 14.09 СВ 1 5000 м 5/3 300 м
[Cu Sc]
+30.0 +26.6 82 +46 +46 опасность
перегрева
1005.3 999.5
00 15.09 штиль 0 5000 м 4/1 300 м
[Sc Ci fib]
+26.0 +24.6 92 +37 +37 очень
душно
1005.5 999.7 +24.0
03 15.09 СВ 1 6000 м 5/4 300 м
[Cu Sc Ci fib]
+30.0 +25.3 76 +44 +52 опасность
перегрева
1006.2 1000.4
06 15.09 СВ 1 10 км 3/1 300 м
[Cu hum Ci fib]
+33.0 +27.5 73 +52 +72 опасность
перегрева
1005.1 999.4
09 15.09 штиль 0 10 км 3/1 300 м
[Cu hum Ci fib]
+34.0 +27.0 67 +52 +62 опасность
перегрева
1002.8 997.1
12 15.09 штиль 0 6000 м 3/1 300 м
[Cu hum Ci fib]
+32.5 +27.0 73 +51 +51 опасность
перегрева
1002.8 997.1 +34.5
15 15.09 штиль 0 5000 м 3/1 300 м
[Cu hum Ci fib]
+30.5 +26.0 77 +46 +46 опасность
перегрева
1003.6 997.9
03 16.09 СВ 1 6000 м 3/1 300 м
[Sc Ci fib]
+31.0 +26.7 78 +48 +60 опасность
перегрева
1005.6 999.9
06 16.09 СВ 1 10 км 3/1 300 м
[Cu hum Ci fib]
+33.0 +27.5 73 +52 +72 опасность
перегрева
1004.5 998.8
09 16.09 СВ 1 10 км 4/3 300 м
[Cb cap Ci fib]
+36.0 +27.8 63 +56 +63 опасность
перегрева
1002.6 997.0

 

Местоположение метеостанции Минбу (Мьянма): широта 20.17 долгота 94.88 высота над уровнем моря 51 м.

В архиве по умолчанию представлена погода в Минбу за последнюю неделю. Архивные данные за месяц целиком и за предыдущие месяцы, начиная с января 2011 года, Вы можете получить, выбрав интересующий диапазон дат из раскрывающегося списка и нажав кнопку "Ввод!".


*Определитесь, кто Вы:
робот инопланетянин человек

Внимание! Время в таблицах - всемирное. Для получения местного времени необходимо прибавить поправку, которая равна 6.5 ч.

Смотрите также архив погоды в соседних городах и на ближайших метеорологических станциях:

Погода в Магуэе (Мьянма) (8 км)
Погода в Чау (Мьянма) (79 км)
Погода в Ньянг-У (Мьянма) (115 км)
Погода в Мейтхиле (Мьянма) (123 км)
Погода в Пьинмане (Мьянма) (149 км)
Погода в Проме (Мьянма) (156 км)
Погода в Кяокпю (Мьянма) (162 км)
Погода в Миндате (Мьянма) (166 км)
Погода в Манаунге (Мьянма) (190 км)
Погода в Тандве (Мьянма) (197 км)

Пояснения к столбцам:

Ветер - указаны скорость ветра в м/с - средняя за 10 мин, порывы в срок и между сроками (в фигурных скобках) и направление, откуда дует ветер: С - северный, СВ - северо-восточный, В - восточный, ЮВ - юго-восточный, Ю - южный, ЮЗ - юго-западный, З - западный, СЗ - северо-западный.
Видимость - горизонтальная дальность видимости в метрах или километрах. При видимости от 1 до 10 км при отсутствии осадков обычно наблюдается дымка, при ухудшении видимости до 1 км и менее - туман. В сухую погоду видимость может ухудшаться дымом, пылью или мглою.
Явления - указаны атмосферные явления, наблюдавшиеся в срок или в последний час перед сроком; фигурными скобками обозначены явления, наблюдавшиеся между сроками (за 1-3 часа до срока); квадратными скобками обозначены град или гололедные отложения с указанием их диаметра в мм.
Облачность - указаны через наклонную черту общая и нижняя облачность в баллах и высота нижней границы облаков в метрах; квадратными скобками обозначены формы облаков: Ci - перистые, Cs - перисто-слоистые, Cc - перисто-кучевые, Ac - высококучевые, As - высокослоистые, Sc - слоисто-кучевые, Ns - слоисто-дождевые, Cu - кучевые, Cb - кучево-дождевые. Подробнее классификацию облаков см. в Атласе облаков (PDF).
T - Температура воздуха - температура, измеренная на высоте 2 м над землей.
Td - Температура точки росы - температура, при понижении до которой содержащийся в воздухе водяной пар достигнет насыщения.
f - Относительная влажность воздуха - влажноcть воздуха, измеренная на высоте 2 м над землей.
Te - Эффективная температура - температура, которую ощущает одетый по сезону человек в тени. Характеристика душности погоды. При расчете учитывается влияние влажности воздуха и скорости ветра на теплоощущения человека.
Tes - Эффективная температура на солнце - температура, которую ощущает человек, с поправкой на солнечный нагрев. Характеристика знойности погоды. Зависит от высоты солнца над горизонтом, облачности и скорости ветра. Ночью, в пасмурную погоду, а также при ветре 12 м/с и более поправка равна нулю.
P - Атмосферное давление - приведенное к уровню моря атмосферное давление.
Po - Атмосферное давление - измеренное на уровне метеостанции атмосферное давление.
Tmin - Минимальная температура - минимум температуры воздуха на высоте 2 м над землей.
Tmax - Максимальная температура - максимум температуры воздуха на высоте 2 м над землей.
R - Количество осадков - Количество выпавших осадков за период времени, мм. При наведении курсора мыши на число - период времени, за который выпало указанное количество осадков.
R24 - Количество осадков - Количество выпавших осадков за 24 часа, мм.
S - Снежный покров - Высота снежного покрова, см. При наведении курсора мыши на число - состояние снежного покрова и степень покрытия местности в баллах.